Location: Newark
(47.5833°N, 8.1500°E)
Time: 10:36:48
(UTC+00:00)

Altair - Pass Details

Date: 02 November 2020
Orbit: 1502 x 1682 km, 47.2° (Epoch: 25 November)

Event Time Altitude Azimuth Distance (km) Brightness Sun altitude
Exits shadow 03:54:34 28° 227° (SW) 2,566 8.2 -23.8°
Maximum altitude 04:00:00 65° 154° (SSE) 1,661 7.7 -22.8°
Drops below altitude 10° 04:09:23 10° 76° (ENE) 3,779 10.6 -21.3°
Sets 04:12:33 0° 74° (ENE) 4,790 11.4 -20.7°
